Location: Lecco
(45.8566°N, 9.3977°E)
Time: 08:25:16
(UTC+02:00)

N. Korean satellite - Visible Passes

Search period start: 14 October 2019 00:00
Search period end: 24 October 2019 00:00
Orbit: 455 x 508 km, 97.2° (Epoch: 13 October)

Date Brightness Start Highest point End Pass type
(mag) Time Alt. Az. Time Alt. Az. Time Alt. Az.
14 Oct 10.2 06:15:22 10° ENE 06:16:57 12° E 06:18:31 10° ESE visible
15 Oct 10.2 19:34:52 10° WSW 19:36:32 13° W 19:38:11 10° WNW visible
16 Oct 8.3 06:56:39 10° NNE 07:00:02 38° E 07:03:26 10° SSE visible
16 Oct 9.2 19:08:09 10° SSW 19:11:02 25° W 19:13:57 10° NW visible
17 Oct 9.7 06:31:55 10° NE 06:34:37 20° E 06:37:20 10° SE visible
18 Oct 10.6 06:08:34 10° E 06:09:07 10° E 06:09:39 10° E visible
19 Oct 10.0 19:26:28 10° SW 19:28:39 16° W 19:30:50 10° NW visible
20 Oct 8.8 06:48:57 10° NNE 06:52:13 31° E 06:55:30 10° SSE visible
20 Oct 8.7 19:00:06 10° SSW 19:03:10 31° W 19:06:18 10° NNW visible
21 Oct 10.0 06:24:22 10° NE 06:26:46 17° E 06:29:10 10° SE visible
23 Oct 7.6 07:06:11 10° NNE 07:09:45 52° E 07:13:21 10° S visible
23 Oct 9.7 19:18:11 10° SW 19:20:44 19° W 19:23:19 10° NW visible
